Tracking 27405 objects as of 2-Jun-2023
HD Live streaming from Space Station
objects crossing your sky now

STARLINK-3668

Track STARLINK-3668 now!
10-day predictions
STARLINK-3668 is classified as:


NORAD ID: 52002
Int'l Code: 2022-025AY
Perigee: 546.1 km
Apogee: 547.7 km
Inclination: 53.2 °
Period: 95.4 minutes
Semi major axis: 6917 km
RCS: Unknown
Launch date: March 9, 2022
Source: United States (US)
Launch site: AIR FORCE EASTERN TEST RANGE (AFETR)
Your satellite tracking list
Your tracking list is empty




NASA's NSSDC Master Catalog

Two Line Element Set (TLE):
1 52002U 22025AY  23152.41094578  .00004842  00000-0  32209-3 0  9998
2 52002  53.2160 243.4205 0001106 121.4605 238.6496 15.08838048 68103
Source of the keplerian elements: AFSPC